Location: Lane
(33.5226°N, 79.8788°W)
Time: 22:24:03
(UTC+00:00)

Vanguard 2 Rocket - Pass Details

Date: 09 October 2022
Orbit: 555 x 3321 km, 32.9° (Epoch: 02 December)

Event Time Altitude Azimuth Distance (km) Brightness Sun altitude
Rises 22:46:17 0° 207° (SSW) 6,847 11.9 0.6°
Reaches altitude 10° 22:51:22 10° 199° (SSW) 6,058 11.5 -0.4°
Maximum altitude 23:08:04 35° 142° (SE) 4,482 10.2 -3.9°
Drops below altitude 10° 23:23:15 10° 86° (E) 5,582 10.2 -7.1°
Enters shadow 23:24:14 - 84° (E) 5,729 10.3 -7.3°
